M I D A S
Marine Information and Data Acquisition System
Tripno 1430 of the Zeeleeuw from 2008-02-27 07:35:08 to 2008-02-27 15:52:09
Back to CruiseResearch ActivitiesStationsMapUnderway DataData graphs

EquipmentUnitsComments
TimeDGPSUTC
LatitudeDGPSDM.mWGS84
LongitudeDGPSDM.mWGS84
SpeedMeteo Stationm/sRelative wind speed
DirectionMeteo StationdegRelative wind direction
TemperatureMeteo Stationdeg CelciusAir temperature
PressureMeteo StationPaAtmospheric pressure
HumidityMeteo Station%Relative humidity
Missing or incorrect values are displayed as -999
Metereological data collected by the RV Zeeleeuw from 2008-02-27 07:37:18 to 2008-02-27 16:00:25
                                                                                    Next 1000 lines
Time Latitude Longitude Speed Direction Temperature Pressure Humidity
2008-02-27 07:37:26 51°13.663 2°55.951 4.7 21 7.7 101580 82
2008-02-27 07:37:31 51°13.664 2°55.948 6.7 55 7.7 101580 82
2008-02-27 07:37:36 51°13.664 2°55.944 8 22 7.7 101580 81
2008-02-27 07:37:41 51°13.665 2°55.94 6.8 55 7.7 101580 81
2008-02-27 07:37:47 51°13.666 2°55.933 7.6 22 7.7 101580 81
2008-02-27 07:37:54 51°13.668 2°55.924 7.1 58 7.7 101580 81
2008-02-27 07:37:58 51°13.669 2°55.918 5.3 21 7.7 101580 81
2008-02-27 07:38:03 51°13.671 2°55.911 6.6 51 7.7 101580 81
2008-02-27 07:38:08 51°13.672 2°55.902 4.8 20 7.7 101580 81
2008-02-27 07:38:13 51°13.674 2°55.894 6 52 7.7 101580 81
2008-02-27 07:38:19 51°13.676 2°55.883 5.1 21 7.8 101580 81
2008-02-27 07:38:23 51°13.677 2°55.876 7.5 55 7.8 101580 81
2008-02-27 07:38:28 51°13.679 2°55.867 5.2 20 7.7 101570 80
2008-02-27 07:38:33 51°13.681 2°55.857 5.7 57 7.7 101570 80
2008-02-27 07:38:38 51°13.682 2°55.848 6.5 22 7.8 101570 82
2008-02-27 07:38:43 51°13.683 2°55.838 5.6 52 7.8 101570 82
2008-02-27 07:38:49 51°13.685 2°55.825 6.3 21 7.9 101580 82
2008-02-27 07:38:53 51°13.686 2°55.817 4.2 51 7.9 101580 82
2008-02-27 07:38:58 51°13.687 2°55.807 4.3 26 7.9 101570 82
2008-02-27 07:39:03 51°13.688 2°55.797 3.9 57 7.9 101570 82
2008-02-27 07:39:08 51°13.689 2°55.788 4.7 27 7.9 101580 82
2008-02-27 07:39:13 51°13.689 2°55.779 5.8 56 7.9 101580 82
2008-02-27 07:39:19 51°13.69 2°55.77 3.6 24 8 101580 81
2008-02-27 07:39:23 51°13.69 2°55.764 3.6 52 8 101580 81
2008-02-27 07:39:28 51°13.691 2°55.757 4 28 8 101570 81
2008-02-27 07:39:33 51°13.691 2°55.751 4.9 52 8 101570 81
2008-02-27 07:39:38 51°13.691 2°55.745 2.5 23 8 101580 80
2008-02-27 07:39:43 51°13.691 2°55.741 3.3 56 8 101580 80
2008-02-27 07:39:48 51°13.691 2°55.737 4.7 19 8 101580 80
2008-02-27 07:39:53 51°13.691 2°55.735 4.3 55 8 101580 80
2008-02-27 07:39:57 51°13.691 2°55.733 3.6 24 7.9 101580 79
2008-02-27 07:40:03 51°13.691 2°55.732 3.7 50 7.9 101580 79
2008-02-27 07:40:09 51°13.692 2°55.731 3.9 26 7.9 101580 79
2008-02-27 07:40:14 51°13.692 2°55.732 3.5 57 7.9 101580 79
2008-02-27 07:40:18 51°13.693 2°55.732 3.8 26 7.9 101580 79
2008-02-27 07:40:23 51°13.693 2°55.733 1.5 309 7.9 101580 79
2008-02-27 07:40:28 51°13.695 2°55.735 2.3 269 7.9 101590 78
2008-02-27 07:40:33 51°13.696 2°55.736 2.6 308 7.9 101590 78
2008-02-27 07:40:37 51°13.697 2°55.737 2 256 7.9 101580 78
2008-02-27 07:40:42 51°13.699 2°55.739 2.9 305 7.9 101580 78
2008-02-27 07:40:48 51°13.701 2°55.741 1.9 22 7.9 101580 78
2008-02-27 07:40:54 51°13.705 2°55.742 3.1 303 7.9 101580 78
2008-02-27 07:40:58 51°13.707 2°55.743 5.1 260 7.9 101580 78
2008-02-27 07:41:02 51°13.709 2°55.743 4.6 304 7.9 101580 78
2008-02-27 07:41:08 51°13.713 2°55.743 4.1 264 7.9 101580 78
2008-02-27 07:41:12 51°13.716 2°55.743 1.5 304 7.9 101580 78
2008-02-27 07:41:18 51°13.72 2°55.743 3.2 21 7.9 101580 78
2008-02-27 07:41:22 51°13.723 2°55.742 4.8 304 7.9 101580 78
2008-02-27 07:41:27 51°13.728 2°55.739 4.1 20 7.9 101580 78
2008-02-27 07:41:32 51°13.733 2°55.736 3.6 304 7.9 101580 78
2008-02-27 07:41:37 51°13.738 2°55.731 4.6 320 7.9 101580 78
2008-02-27 07:41:42 51°13.744 2°55.725 6.1 302 7.9 101580 78
2008-02-27 07:41:45 51°13.748 2°55.722 7 20 7.9 101570 78
2008-02-27 07:41:50 51°13.756 2°55.715 5 305 7.9 101570 78
2008-02-27 07:41:58 51°13.767 2°55.703 4.6 323 7.9 101570 78
2008-02-27 07:42:02 51°13.773 2°55.696 5.3 304 7.9 101570 78
2008-02-27 07:42:07 51°13.782 2°55.687 5.5 320 7.9 101580 78
2008-02-27 07:42:12 51°13.79 2°55.678 8 326 7.9 101580 78
2008-02-27 07:42:17 51°13.799 2°55.669 6.2 327 7.9 101580 78
2008-02-27 07:42:22 51°13.808 2°55.66 9.3 302 7.9 101580 78
2008-02-27 07:42:27 51°13.817 2°55.65 8.8 320 7.9 101580 78
2008-02-27 07:42:32 51°13.827 2°55.641 9.7 307 7.9 101580 78
2008-02-27 07:42:37 51°13.837 2°55.632 7.9 315 7.9 101580 78
2008-02-27 07:42:42 51°13.848 2°55.623 7.4 324 7.9 101580 78
2008-02-27 07:42:46 51°13.856 2°55.616 7.9 328 7.9 101580 78
2008-02-27 07:42:52 51°13.869 2°55.606 9.2 310 7.9 101580 78
2008-02-27 07:42:57 51°13.88 2°55.597 8.6 317 7.9 101580 78
2008-02-27 07:43:02 51°13.891 2°55.589 7.7 308 7.9 101580 78
2008-02-27 07:43:05 51°13.897 2°55.584 6.5 321 7.8 101580 78
2008-02-27 07:43:10 51°13.909 2°55.575 8.5 311 7.8 101580 78
2008-02-27 07:43:15 51°13.92 2°55.567 5.7 318 7.8 101580 78
2008-02-27 07:43:21 51°13.933 2°55.558 8.2 305 7.8 101580 78
2008-02-27 07:43:26 51°13.944 2°55.551 5.4 25 7.8 101580 78
2008-02-27 07:43:31 51°13.953 2°55.543 7.2 324 7.8 101580 78
2008-02-27 07:43:36 51°13.963 2°55.537 6.2 323 7.8 101580 78
2008-02-27 07:43:41 51°13.972 2°55.53 6.8 308 7.8 101580 78
2008-02-27 07:43:46 51°13.98 2°55.524 9.1 319 7.8 101580 78
2008-02-27 07:43:50 51°13.987 2°55.519 10.5 305 7.8 101580 78
2008-02-27 07:43:55 51°13.995 2°55.514 7.9 26 7.8 101590 78
2008-02-27 07:44:00 51°14.003 2°55.508 5.7 311 7.8 101590 78
2008-02-27 07:44:04 51°14.009 2°55.504 6.2 321 7.8 101580 78
2008-02-27 07:44:10 51°14.017 2°55.497 6.4 308 7.8 101580 78
2008-02-27 07:44:15 51°14.024 2°55.491 7 26 7.8 101580 78
2008-02-27 07:44:20 51°14.031 2°55.486 4.4 301 7.8 101580 78
2008-02-27 07:44:25 51°14.038 2°55.481 8.1 316 7.8 101580 78
2008-02-27 07:44:30 51°14.045 2°55.475 4.9 328 7.8 101580 78
2008-02-27 07:44:35 51°14.052 2°55.47 8.8 322 7.8 101590 79
2008-02-27 07:44:40 51°14.058 2°55.465 6.5 307 7.8 101590 79
2008-02-27 07:44:45 51°14.065 2°55.46 6.3 319 7.8 101590 79
2008-02-27 07:44:50 51°14.071 2°55.455 9.2 308 7.8 101590 79
2008-02-27 07:44:55 51°14.078 2°55.45 7.1 27 7.8 101590 79
2008-02-27 07:45:00 51°14.085 2°55.444 9.2 304 7.8 101590 79
2008-02-27 07:45:05 51°14.093 2°55.439 9.5 318 7.8 101590 79
2008-02-27 07:45:10 51°14.101 2°55.432 11 309 7.8 101590 79
2008-02-27 07:45:15 51°14.11 2°55.426 11.7 26 7.8 101590 79
2008-02-27 07:45:20 51°14.119 2°55.418 11.6 306 7.8 101590 79
2008-02-27 07:45:25 51°14.129 2°55.41 12.1 19 7.8 101590 79
2008-02-27 07:45:30 51°14.139 2°55.402 11 303 7.8 101590 79
2008-02-27 07:45:35 51°14.15 2°55.392 14.2 24 7.8 101580 79
2008-02-27 07:45:40 51°14.161 2°55.383 16 305 7.8 101580 79
2008-02-27 07:45:45 51°14.172 2°55.372 14.5 22 7.8 101580 79
2008-02-27 07:45:50 51°14.184 2°55.361 13.8 301 7.8 101580 79
2008-02-27 07:45:54 51°14.193 2°55.351 12 23 7.8 101580 80
2008-02-27 07:46:00 51°14.207 2°55.336 15 308 7.8 101580 80
2008-02-27 07:46:06 51°14.221 2°55.32 12.2 317 7.8 101580 80
2008-02-27 07:46:10 51°14.23 2°55.308 11.1 307 7.8 101580 80
2008-02-27 07:46:15 51°14.241 2°55.292 11.5 320 7.8 101590 80
2008-02-27 07:46:20 51°14.252 2°55.275 14.9 307 7.8 101590 80
2008-02-27 07:46:25 51°14.263 2°55.258 13.1 322 7.8 101570 80
2008-02-27 07:46:30 51°14.274 2°55.24 10.2 303 7.8 101570 80
2008-02-27 07:46:35 51°14.285 2°55.222 9.5 321 7.8 101580 80
2008-02-27 07:46:40 51°14.295 2°55.203 15 306 7.8 101580 80
2008-02-27 07:46:45 51°14.306 2°55.183 12.6 319 7.8 101580 80
2008-02-27 07:46:50 51°14.316 2°55.163 13.7 305 7.8 101580 80
2008-02-27 07:46:55 51°14.326 2°55.143 16.9 321 7.8 101580 81
2008-02-27 07:47:00 51°14.337 2°55.123 14.2 305 7.8 101580 81
2008-02-27 07:47:05 51°14.347 2°55.102 17 320 7.8 101580 81
2008-02-27 07:47:10 51°14.357 2°55.081 16.2 306 7.8 101580 81
2008-02-27 07:47:15 51°14.366 2°55.059 14.4 322 7.8 101570 81
2008-02-27 07:47:20 51°14.376 2°55.038 13.7 306 7.8 101570 81
2008-02-27 07:47:25 51°14.385 2°55.016 17.6 320 7.8 101570 81
2008-02-27 07:47:29 51°14.393 2°54.998 13.9 305 7.8 101570 81
2008-02-27 07:47:34 51°14.403 2°54.976 14.1 323 7.7 101570 81
2008-02-27 07:47:39 51°14.412 2°54.953 16.5 323 7.7 101570 81
2008-02-27 07:47:44 51°14.421 2°54.93 14 323 7.7 101570 81
2008-02-27 07:47:49 51°14.43 2°54.907 13.7 305 7.7 101570 81
2008-02-27 07:47:54 51°14.439 2°54.883 16.2 322 7.7 101570 81
2008-02-27 07:47:59 51°14.447 2°54.859 14.2 306 7.7 101570 81
2008-02-27 07:48:04 51°14.455 2°54.834 14 324 7.7 101570 81
2008-02-27 07:48:09 51°14.463 2°54.81 16.6 322 7.7 101570 81
2008-02-27 07:48:15 51°14.473 2°54.78 16.7 324 7.7 101570 81
2008-02-27 07:48:19 51°14.479 2°54.76 15.1 305 7.7 101570 81
2008-02-27 07:48:25 51°14.49 2°54.731 17.1 326 7.7 101580 81
2008-02-27 07:48:30 51°14.498 2°54.706 17.2 304 7.7 101580 81
2008-02-27 07:48:34 51°14.505 2°54.687 14.4 324 7.7 101590 81
2008-02-27 07:48:39 51°14.513 2°54.663 16.8 304 7.7 101590 81
2008-02-27 07:48:44 51°14.522 2°54.638 14.2 324 7.7 101580 81
2008-02-27 07:48:50 51°14.532 2°54.609 15 325 7.7 101580 81
2008-02-27 07:48:54 51°14.539 2°54.59 13.1 322 7.7 101580 81
2008-02-27 07:48:59 51°14.547 2°54.565 17.1 304 7.7 101580 81
2008-02-27 07:49:04 51°14.556 2°54.541 14.1 324 7.7 101570 81
2008-02-27 07:49:09 51°14.564 2°54.517 14 324 7.7 101570 81
2008-02-27 07:49:14 51°14.573 2°54.493 15.2 326 7.7 101570 81
2008-02-27 07:49:19 51°14.581 2°54.468 16.3 304 7.7 101570 81
2008-02-27 07:49:24 51°14.589 2°54.444 13.7 324 7.7 101570 81
2008-02-27 07:49:30 51°14.599 2°54.414 14 324 7.7 101570 81
2008-02-27 07:49:34 51°14.606 2°54.395 13.2 324 7.7 101580 81
2008-02-27 07:49:40 51°14.615 2°54.365 16.3 323 7.7 101580 81
2008-02-27 07:49:45 51°14.623 2°54.34 15 326 7.7 101570 81
2008-02-27 07:49:50 51°14.63 2°54.315 15.9 327 7.7 101570 81
2008-02-27 07:49:55 51°14.638 2°54.29 14 327 7.7 101580 81
2008-02-27 07:50:00 51°14.644 2°54.264 13.8 326 7.7 101580 81
2008-02-27 07:50:05 51°14.65 2°54.238 14.1 325 7.7 101580 81
2008-02-27 07:50:10 51°14.656 2°54.211 17.3 326 7.7 101580 81
2008-02-27 07:50:14 51°14.66 2°54.19 14.1 326 7.7 101570 82
2008-02-27 07:50:19 51°14.665 2°54.164 15.3 303 7.7 101570 82
2008-02-27 07:50:24 51°14.67 2°54.137 15.8 329 7.7 101580 82
2008-02-27 07:50:30 51°14.676 2°54.104 15.2 328 7.7 101580 82
2008-02-27 07:50:34 51°14.68 2°54.083 14.4 326 7.7 101580 82
2008-02-27 07:50:39 51°14.685 2°54.056 16.9 301 7.7 101580 82
2008-02-27 07:50:44 51°14.69 2°54.029 16.9 327 7.7 101590 82
2008-02-27 07:50:50 51°14.695 2°53.996 15.4 328 7.7 101590 82
2008-02-27 07:50:55 51°14.7 2°53.969 14.6 327 7.7 101580 82
2008-02-27 07:51:00 51°14.704 2°53.942 17.3 328 7.7 101580 82
2008-02-27 07:51:05 51°14.708 2°53.915 16.4 328 7.7 101580 82
2008-02-27 07:51:10 51°14.712 2°53.887 16.7 328 7.7 101580 82
2008-02-27 07:51:15 51°14.716 2°53.86 16.9 326 7.7 101590 82
2008-02-27 07:51:20 51°14.72 2°53.833 15.7 328 7.7 101590 82
2008-02-27 07:51:25 51°14.723 2°53.806 14 330 7.7 101600 82
2008-02-27 07:51:30 51°14.727 2°53.778 13.9 329 7.7 101600 82
2008-02-27 07:51:34 51°14.729 2°53.756 15.3 330 7.7 101590 82
2008-02-27 07:51:40 51°14.733 2°53.723 14.9 326 7.7 101590 82
2008-02-27 07:51:45 51°14.736 2°53.696 17.2 329 7.7 101580 82
2008-02-27 07:51:50 51°14.74 2°53.668 14.4 329 7.7 101580 82
2008-02-27 07:51:55 51°14.742 2°53.641 15 329 7.7 101590 82
2008-02-27 07:52:00 51°14.745 2°53.613 14.8 328 7.7 101590 82
2008-02-27 07:52:05 51°14.747 2°53.585 17.4 330 7.7 101580 82
2008-02-27 07:52:10 51°14.75 2°53.558 16.7 328 7.7 101580 82
2008-02-27 07:52:15 51°14.752 2°53.53 16.8 330 7.7 101580 82
2008-02-27 07:52:19 51°14.754 2°53.508 16.9 330 7.7 101580 82
2008-02-27 07:52:25 51°14.757 2°53.475 17.1 333 7.7 101590 82
2008-02-27 07:52:30 51°14.758 2°53.447 15.7 332 7.7 101590 82
2008-02-27 07:52:35 51°14.757 2°53.42 16.6 334 7.7 101570 82
2008-02-27 07:52:40 51°14.757 2°53.392 16.8 333 7.7 101570 82
2008-02-27 07:52:45 51°14.757 2°53.364 16.4 334 7.7 101600 82
2008-02-27 07:52:50 51°14.756 2°53.337 15.1 333 7.7 101600 82
2008-02-27 07:52:55 51°14.755 2°53.309 14.7 332 7.7 101590 82
2008-02-27 07:53:00 51°14.754 2°53.282 17.4 334 7.7 101590 82
2008-02-27 07:53:05 51°14.753 2°53.254 17.4 335 7.7 101590 82
2008-02-27 07:53:10 51°14.752 2°53.226 16.3 334 7.7 101590 82
2008-02-27 07:53:15 51°14.75 2°53.199 15.4 335 7.7 101590 82
2008-02-27 07:53:20 51°14.749 2°53.171 14.2 334 7.7 101590 82
2008-02-27 07:53:25 51°14.748 2°53.143 13.6 334 7.7 101590 82
2008-02-27 07:53:30 51°14.747 2°53.115 16.5 334 7.7 101590 82
2008-02-27 07:53:34 51°14.746 2°53.093 14.8 336 7.7 101590 82
2008-02-27 07:53:40 51°14.745 2°53.06 16.3 333 7.7 101590 82
2008-02-27 07:53:45 51°14.745 2°53.031 16.1 335 7.7 101590 82
2008-02-27 07:53:50 51°14.744 2°53.004 16 333 7.7 101590 82
2008-02-27 07:53:55 51°14.742 2°52.976 16.3 334 7.7 101590 82
2008-02-27 07:54:00 51°14.741 2°52.948 17.6 335 7.7 101590 82
2008-02-27 07:54:05 51°14.74 2°52.92 17.1 335 7.7 101590 82
2008-02-27 07:54:10 51°14.739 2°52.892 16.3 333 7.7 101590 82
2008-02-27 07:54:15 51°14.738 2°52.864 17.6 334 7.7 101590 82
2008-02-27 07:54:20 51°14.736 2°52.837 17.6 339 7.7 101590 82
2008-02-27 07:54:25 51°14.734 2°52.809 16.1 337 7.7 101590 82
2008-02-27 07:54:30 51°14.73 2°52.782 14.3 338 7.7 101590 82
2008-02-27 07:54:35 51°14.726 2°52.755 16 340 7.7 101590 82
2008-02-27 07:54:40 51°14.722 2°52.727 17.7 337 7.7 101590 82
2008-02-27 07:54:45 51°14.717 2°52.7 15.8 340 7.7 101590 82
2008-02-27 07:54:50 51°14.713 2°52.673 15.4 341 7.7 101590 82
2008-02-27 07:54:55 51°14.709 2°52.646 16.2 339 7.7 101580 82
2008-02-27 07:55:00 51°14.705 2°52.618 16.9 338 7.7 101580 82
2008-02-27 07:55:05 51°14.7 2°52.591 16.4 340 7.6 101580 82
2008-02-27 07:55:10 51°14.696 2°52.564 16.8 338 7.6 101580 82
2008-02-27 07:55:15 51°14.691 2°52.537 16.5 339 7.7 101580 82
2008-02-27 07:55:20 51°14.688 2°52.509 16.7 339 7.7 101580 82
2008-02-27 07:55:25 51°14.683 2°52.482 16.9 339 7.7 101580 82
2008-02-27 07:55:30 51°14.679 2°52.455 15.3 340 7.7 101580 82
2008-02-27 07:55:35 51°14.675 2°52.427 14.6 337 7.7 101580 82
2008-02-27 07:55:40 51°14.67 2°52.4 14.6 337 7.7 101580 82
2008-02-27 07:55:45 51°14.666 2°52.372 15.6 338 7.7 101580 82
2008-02-27 07:55:50 51°14.662 2°52.344 17.9 338 7.7 101580 82
2008-02-27 07:55:54 51°14.659 2°52.322 17.2 339 7.7 101580 82
2008-02-27 07:56:00 51°14.654 2°52.289 15.8 339 7.7 101580 82
2008-02-27 07:56:05 51°14.649 2°52.261 15.8 339 7.7 101580 83
2008-02-27 07:56:10 51°14.646 2°52.234 16.6 336 7.7 101580 83
2008-02-27 07:56:15 51°14.64 2°52.206 15 337 7.7 101580 83
2008-02-27 07:56:20 51°14.635 2°52.179 13.5 338 7.7 101580 83
2008-02-27 07:56:25 51°14.63 2°52.152 15.5 339 7.7 101590 83
2008-02-27 07:56:30 51°14.625 2°52.125 14.7 339 7.7 101590 83
2008-02-27 07:56:35 51°14.62 2°52.098 15.2 339 7.7 101590 83
2008-02-27 07:56:40 51°14.615 2°52.071 16 339 7.7 101590 83
2008-02-27 07:56:45 51°14.61 2°52.044 17.1 340 7.7 101590 83
2008-02-27 07:56:50 51°14.605 2°52.017 15.8 337 7.7 101590 83
2008-02-27 07:56:55 51°14.6 2°51.99 16.5 339 7.7 101590 83
2008-02-27 07:57:00 51°14.595 2°51.963 16 339 7.7 101590 83
2008-02-27 07:57:05 51°14.591 2°51.935 16.2 339 7.7 101590 83
2008-02-27 07:57:10 51°14.586 2°51.909 17 338 7.7 101590 83
2008-02-27 07:57:15 51°14.581 2°51.881 16.3 338 7.7 101580 83
2008-02-27 07:57:20 51°14.576 2°51.854 15.8 338 7.7 101580 83
2008-02-27 07:57:25 51°14.571 2°51.827 16.6 338 7.7 101580 83
2008-02-27 07:57:30 51°14.566 2°51.8 17.2 338 7.7 101580 83
2008-02-27 07:57:35 51°14.562 2°51.773 15.7 338 7.7 101590 83
2008-02-27 07:57:40 51°14.557 2°51.745 15.2 336 7.7 101590 83
2008-02-27 07:57:45 51°14.552 2°51.718 16.6 338 7.6 101590 83
2008-02-27 07:57:50 51°14.548 2°51.69 16.3 336 7.6 101590 83
2008-02-27 07:57:55 51°14.544 2°51.663 15.6 336 7.6 101590 83
2008-02-27 07:58:00 51°14.54 2°51.635 16.6 338 7.6 101590 83
2008-02-27 07:58:05 51°14.536 2°51.608 14.6 336 7.6 101590 83
2008-02-27 07:58:10 51°14.532 2°51.58 13.7 339 7.6 101590 83
2008-02-27 07:58:15 51°14.528 2°51.553 16.7 337 7.6 101590 83
2008-02-27 07:58:20 51°14.524 2°51.525 16.2 338 7.6 101590 83
2008-02-27 07:58:25 51°14.52 2°51.498 16 337 7.6 101590 83
2008-02-27 07:58:30 51°14.516 2°51.471 16.1 337 7.6 101590 83
2008-02-27 07:58:35 51°14.512 2°51.443 15.5 337 7.7 101600 83
2008-02-27 07:58:40 51°14.509 2°51.416 16.8 338 7.7 101600 83
2008-02-27 07:58:45 51°14.504 2°51.388 16.3 336 7.6 101590 83
2008-02-27 07:58:50 51°14.5 2°51.361 16.3 338 7.6 101590 83
2008-02-27 07:58:55 51°14.496 2°51.333 16.4 338 7.6 101590 83
2008-02-27 07:59:00 51°14.492 2°51.306 18.3 337 7.6 101590 83
2008-02-27 07:59:05 51°14.488 2°51.278 17.2 337 7.6 101590 83
2008-02-27 07:59:10 51°14.485 2°51.251 17.6 339 7.6 101590 83
2008-02-27 07:59:15 51°14.481 2°51.223 17.3 337 7.6 101590 83
2008-02-27 07:59:20 51°14.477 2°51.195 16 336 7.6 101590 83
2008-02-27 07:59:25 51°14.473 2°51.167 15.3 338 7.7 101580 83
2008-02-27 07:59:30 51°14.47 2°51.14 16.4 337 7.7 101580 83
2008-02-27 07:59:35 51°14.466 2°51.112 15.6 339 7.6 101590 83
2008-02-27 07:59:40 51°14.462 2°51.084 14.7 337 7.6 101590 83
2008-02-27 07:59:45 51°14.458 2°51.056 17 338 7.7 101590 83
2008-02-27 07:59:50 51°14.454 2°51.028 16.3 338 7.7 101590 83
2008-02-27 07:59:55 51°14.451 2°51 16.6 338 7.6 101600 83
2008-02-27 08:00:00 51°14.447 2°50.973 15.7 341 7.6 101600 83
2008-02-27 08:00:05 51°14.443 2°50.945 16.4 339 7.7 101590 83
2008-02-27 08:00:10 51°14.439 2°50.917 16.2 338 7.7 101590 83
2008-02-27 08:00:15 51°14.435 2°50.889 15.8 339 7.6 101580 83
2008-02-27 08:00:20 51°14.432 2°50.861 18 339 7.6 101580 83
2008-02-27 08:00:25 51°14.428 2°50.834 14.4 338 7.6 101590 83
2008-02-27 08:00:30 51°14.424 2°50.806 15.6 339 7.6 101590 83
2008-02-27 08:00:35 51°14.42 2°50.778 15.5 339 7.6 101590 82
2008-02-27 08:00:40 51°14.416 2°50.75 16.9 336 7.6 101590 82
2008-02-27 08:00:45 51°14.412 2°50.722 16 337 7.7 101580 82
2008-02-27 08:00:50 51°14.408 2°50.694 15.8 338 7.7 101580 82
2008-02-27 08:00:55 51°14.404 2°50.666 16.1 336 7.6 101600 83
2008-02-27 08:01:00 51°14.401 2°50.638 17.6 340 7.6 101600 83
2008-02-27 08:01:05 51°14.397 2°50.611 15.1 337 7.7 101590 83
2008-02-27 08:01:10 51°14.393 2°50.583 15.4 338 7.7 101590 83
2008-02-27 08:01:15 51°14.388 2°50.555 16.1 339 7.7 101600 83
2008-02-27 08:01:20 51°14.385 2°50.527 15.9 336 7.7 101600 83
2008-02-27 08:01:25 51°14.381 2°50.499 16.3 335 7.6 101590 83
2008-02-27 08:01:30 51°14.377 2°50.471 15.8 336 7.6 101590 83
2008-02-27 08:01:35 51°14.373 2°50.444 16.2 337 7.7 101600 83
2008-02-27 08:01:40 51°14.369 2°50.415 17.2 338 7.7 101600 83
2008-02-27 08:01:45 51°14.365 2°50.387 15.4 339 7.7 101600 83
2008-02-27 08:01:50 51°14.362 2°50.36 17.3 338 7.7 101600 83
2008-02-27 08:01:55 51°14.358 2°50.331 16.2 340 7.6 101600 83
2008-02-27 08:02:00 51°14.354 2°50.304 16.2 337 7.6 101600 83
2008-02-27 08:02:05 51°14.35 2°50.276 16.2 337 7.6 101600 83
2008-02-27 08:02:10 51°14.346 2°50.248 15 337 7.6 101600 83
2008-02-27 08:02:15 51°14.343 2°50.221 16.9 338 7.6 101590 83
2008-02-27 08:02:20 51°14.339 2°50.193 16 338 7.6 101590 83
2008-02-27 08:02:25 51°14.336 2°50.165 15.5 335 7.6 101580 83
2008-02-27 08:02:30 51°14.332 2°50.137 16.5 335 7.6 101580 83
2008-02-27 08:02:35 51°14.328 2°50.109 14.9 339 7.6 101590 83
2008-02-27 08:02:40 51°14.324 2°50.081 17.7 339 7.6 101590 83
2008-02-27 08:02:45 51°14.32 2°50.053 16.4 338 7.7 101600 83
2008-02-27 08:02:50 51°14.316 2°50.025 15.6 337 7.7 101600 83
2008-02-27 08:02:55 51°14.313 2°49.997 17.7 339 7.6 101600 83
2008-02-27 08:03:00 51°14.309 2°49.969 17.7 340 7.6 101600 83
2008-02-27 08:03:05 51°14.305 2°49.941 15.1 338 7.6 101590 83
2008-02-27 08:03:10 51°14.301 2°49.913 15 339 7.6 101590 83
2008-02-27 08:03:15 51°14.297 2°49.885 16.7 337 7.6 101590 83
2008-02-27 08:03:20 51°14.293 2°49.857 13.8 337 7.6 101590 83
2008-02-27 08:03:25 51°14.289 2°49.829 18.6 339 7.6 101590 83
2008-02-27 08:03:30 51°14.285 2°49.801 16.6 338 7.6 101590 83
2008-02-27 08:03:35 51°14.282 2°49.773 19.3 339 7.6 101600 83
2008-02-27 08:03:40 51°14.278 2°49.745 16.8 339 7.6 101600 83
2008-02-27 08:03:45 51°14.274 2°49.718 15.5 341 7.6 101590 83
2008-02-27 08:03:50 51°14.269 2°49.69 16.6 339 7.6 101590 83
2008-02-27 08:03:55 51°14.265 2°49.663 15.9 339 7.6 101600 82
2008-02-27 08:04:00 51°14.261 2°49.636 15.7 338 7.6 101600 82
2008-02-27 08:04:05 51°14.257 2°49.608 17.2 339 7.6 101590 82
2008-02-27 08:04:10 51°14.253 2°49.581 17.1 338 7.6 101590 82
2008-02-27 08:04:15 51°14.25 2°49.553 17.7 338 7.6 101600 82
2008-02-27 08:04:20 51°14.245 2°49.526 18.6 339 7.6 101600 82
2008-02-27 08:04:25 51°14.241 2°49.498 18.7 341 7.6 101600 82
2008-02-27 08:04:30 51°14.238 2°49.47 16.7 340 7.6 101600 82
2008-02-27 08:04:35 51°14.234 2°49.442 15.5 339 7.6 101600 82
2008-02-27 08:04:40 51°14.23 2°49.414 15.9 339 7.6 101600 82
2008-02-27 08:04:45 51°14.226 2°49.387 18.2 337 7.6 101590 81
2008-02-27 08:04:50 51°14.222 2°49.359 15.5 337 7.6 101590 81
2008-02-27 08:04:55 51°14.218 2°49.332 17.6 338 7.6 101570 81
2008-02-27 08:05:00 51°14.214 2°49.304 15 338 7.6 101570 81
2008-02-27 08:05:05 51°14.21 2°49.276 17.5 337 7.6 101590 81
2008-02-27 08:05:10 51°14.206 2°49.248 16.1 338 7.6 101590 81
2008-02-27 08:05:15 51°14.203 2°49.22 16.2 341 7.6 101590 81
2008-02-27 08:05:20 51°14.199 2°49.193 14.8 336 7.6 101590 81
2008-02-27 08:05:25 51°14.195 2°49.165 14.9 338 7.6 101600 81
2008-02-27 08:05:30 51°14.191 2°49.137 15.2 340 7.6 101600 81
2008-02-27 08:05:35 51°14.187 2°49.109 16.1 337 7.6 101600 81
2008-02-27 08:05:40 51°14.183 2°49.081 15 338 7.6 101600 81
2008-02-27 08:05:45 51°14.179 2°49.053 15.4 338 7.6 101600 82
2008-02-27 08:05:50 51°14.175 2°49.025 16.3 339 7.6 101600 82
2008-02-27 08:05:55 51°14.171 2°48.996 15.2 339 7.7 101600 82
2008-02-27 08:06:00 51°14.167 2°48.969 15.3 340 7.7 101600 82
2008-02-27 08:06:05 51°14.163 2°48.941 16.3 343 7.6 101600 82
2008-02-27 08:06:10 51°14.157 2°48.914 15 342 7.6 101600 82
2008-02-27 08:06:15 51°14.151 2°48.887 15.9 339 7.6 101590 82
2008-02-27 08:06:20 51°14.145 2°48.861 15.8 343 7.6 101590 82
2008-02-27 08:06:25 51°14.138 2°48.835 15.9 345 7.6 101600 81
2008-02-27 08:06:30 51°14.129 2°48.811 16.3 346 7.6 101600 81
2008-02-27 08:06:35 51°14.12 2°48.787 14.9 347 7.6 101590 82
2008-02-27 08:06:40 51°14.112 2°48.762 15.5 346 7.6 101590 82
2008-02-27 08:06:45 51°14.102 2°48.739 15.3 347 7.6 101600 81
2008-02-27 08:06:50 51°14.092 2°48.715 15.2 348 7.6 101600 81
2008-02-27 08:06:55 51°14.082 2°48.692 16 349 7.6 101570 82
2008-02-27 08:07:00 51°14.073 2°48.667 15.1 347 7.6 101570 82
2008-02-27 08:07:05 51°14.061 2°48.645 15.3 346 7.6 101580 81
2008-02-27 08:07:10 51°14.051 2°48.621 14.4 348 7.6 101580 81
2008-02-27 08:07:15 51°14.041 2°48.597 16.5 349 7.6 101580 81
2008-02-27 08:07:20 51°14.03 2°48.574 17.3 348 7.6 101580 81
2008-02-27 08:07:25 51°14.019 2°48.552 15.9 346 7.6 101580 82
2008-02-27 08:07:30 51°14.008 2°48.529 13.9 348 7.6 101580 82
2008-02-27 08:07:35 51°13.997 2°48.506 15.7 347 7.6 101590 82
2008-02-27 08:07:40 51°13.986 2°48.483 15.9 346 7.6 101590 82
2008-02-27 08:07:45 51°13.975 2°48.46 16.8 346 7.6 101580 82
2008-02-27 08:07:50 51°13.965 2°48.437 15.6 349 7.6 101580 82
2008-02-27 08:07:55 51°13.953 2°48.414 16.3 348 7.6 101580 82
2008-02-27 08:08:00 51°13.943 2°48.391 14.6 346 7.6 101580 82
2008-02-27 08:08:05 51°13.932 2°48.369 14.8 350 7.6 101590 81
2008-02-27 08:08:10 51°13.921 2°48.345 15.3 348 7.6 101590 81
2008-02-27 08:08:15 51°13.91 2°48.322 13.6 347 7.6 101580 81
2008-02-27 08:08:20 51°13.9 2°48.3 16 345 7.6 101580 81
2008-02-27 08:08:25 51°13.889 2°48.277 15.3 351 7.6 101580 81
2008-02-27 08:08:30 51°13.878 2°48.253 14.2 350 7.6 101580 81
2008-02-27 08:08:35 51°13.867 2°48.23 14.6 347 7.6 101590 82
2008-02-27 08:08:40 51°13.857 2°48.207 14.6 348 7.6 101590 82
2008-02-27 08:08:45 51°13.846 2°48.184 14.3 349 7.6 101590 82
2008-02-27 08:08:50 51°13.835 2°48.162 14.7 346 7.6 101590 82
2008-02-27 08:08:55 51°13.825 2°48.138 14.5 347 7.6 101590 82
2008-02-27 08:09:00 51°13.813 2°48.117 14.9 347 7.6 101590 82
2008-02-27 08:09:05 51°13.803 2°48.093 16 348 7.6 101580 82
2008-02-27 08:09:10 51°13.793 2°48.069 14.2 347 7.6 101580 82
2008-02-27 08:09:15 51°13.782 2°48.047 15.3 346 7.6 101590 82
2008-02-27 08:09:20 51°13.771 2°48.023 13.6 349 7.6 101590 82
2008-02-27 08:09:25 51°13.761 2°48 15.1 346 7.6 101590 82
2008-02-27 08:09:30 51°13.75 2°47.978 14.2 344 7.6 101590 82
2008-02-27 08:09:35 51°13.739 2°47.954 15.7 347 7.6 101590 82
2008-02-27 08:09:40 51°13.729 2°47.931 13.9 346 7.6 101590 82
2008-02-27 08:09:45 51°13.718 2°47.908 15.1 347 7.6 101600 82
2008-02-27 08:09:50 51°13.708 2°47.885 14.3 347 7.6 101600 82
2008-02-27 08:09:55 51°13.697 2°47.862 14.6 347 7.6 101600 82
2008-02-27 08:10:00 51°13.686 2°47.838 13.5 346 7.6 101600 82
2008-02-27 08:10:05 51°13.675 2°47.815 14.9 347 7.6 101600 82
2008-02-27 08:10:10 51°13.665 2°47.792 14.6 348 7.6 101600 82
2008-02-27 08:10:15 51°13.654 2°47.769 15 348 7.6 101590 82
2008-02-27 08:10:20 51°13.643 2°47.746 15.9 346 7.6 101590 82
2008-02-27 08:10:25 51°13.632 2°47.723 15.9 350 7.6 101610 82
2008-02-27 08:10:30 51°13.623 2°47.699 15.9 345 7.6 101610 82
2008-02-27 08:10:35 51°13.611 2°47.677 14.8 348 7.6 101590 82
2008-02-27 08:10:40 51°13.602 2°47.653 15.6 346 7.6 101590 82
2008-02-27 08:10:45 51°13.59 2°47.631 15.2 346 7.6 101590 82
2008-02-27 08:10:50 51°13.58 2°47.607 13.7 346 7.6 101590 82
2008-02-27 08:10:55 51°13.57 2°47.584 14.1 345 7.6 101590 82
2008-02-27 08:11:00 51°13.559 2°47.561 14.4 346 7.6 101590 82
2008-02-27 08:11:05 51°13.549 2°47.537 15.5 346 7.6 101590 82
2008-02-27 08:11:10 51°13.539 2°47.514 15.5 346 7.6 101590 82
2008-02-27 08:11:15 51°13.527 2°47.491 14.5 347 7.6 101610 82
2008-02-27 08:11:20 51°13.517 2°47.467 13.8 348 7.6 101610 82
2008-02-27 08:11:25 51°13.506 2°47.445 14.9 348 7.6 101600 82
2008-02-27 08:11:30 51°13.496 2°47.421 13.9 345 7.6 101600 82
2008-02-27 08:11:35 51°13.485 2°47.398 13.9 345 7.6 101590 82
2008-02-27 08:11:40 51°13.475 2°47.375 15.1 347 7.6 101590 82
2008-02-27 08:11:45 51°13.463 2°47.352 15.5 347 7.6 101590 82
2008-02-27 08:11:50 51°13.453 2°47.328 13.8 347 7.6 101590 82
2008-02-27 08:11:55 51°13.442 2°47.305 15.2 349 7.6 101600 82
2008-02-27 08:12:00 51°13.432 2°47.281 13.9 346 7.6 101600 82
2008-02-27 08:12:05 51°13.421 2°47.258 13.8 346 7.6 101600 82
2008-02-27 08:12:10 51°13.41 2°47.235 14.3 346 7.6 101600 82
2008-02-27 08:12:15 51°13.4 2°47.211 15.1 348 7.6 101590 82
2008-02-27 08:12:20 51°13.389 2°47.188 15.4 346 7.6 101590 82
2008-02-27 08:12:25 51°13.378 2°47.165 13.9 348 7.6 101600 82
2008-02-27 08:12:30 51°13.368 2°47.141 16.3 347 7.6 101600 82
2008-02-27 08:12:35 51°13.357 2°47.119 15.1 347 7.6 101600 82
2008-02-27 08:12:40 51°13.347 2°47.094 13.6 346 7.6 101600 82
2008-02-27 08:12:45 51°13.336 2°47.072 14.6 344 7.6 101610 82
2008-02-27 08:12:50 51°13.325 2°47.048 15.6 347 7.6 101610 82
2008-02-27 08:12:55 51°13.314 2°47.025 15 349 7.6 101600 82
2008-02-27 08:13:00 51°13.304 2°47.001 14.8 346 7.6 101600 82
2008-02-27 08:13:05 51°13.293 2°46.978 16.3 347 7.6 101600 82
2008-02-27 08:13:10 51°13.283 2°46.954 14.8 348 7.6 101600 82
2008-02-27 08:13:15 51°13.272 2°46.931 16.7 348 7.6 101610 82
2008-02-27 08:13:20 51°13.262 2°46.907 14.6 348 7.6 101610 82
2008-02-27 08:13:25 51°13.251 2°46.884 15.6 347 7.6 101590 82
2008-02-27 08:13:30 51°13.241 2°46.86 16.4 347 7.6 101590 82
2008-02-27 08:13:35 51°13.23 2°46.837 14.9 346 7.6 101610 82
2008-02-27 08:13:40 51°13.22 2°46.814 16.6 347 7.6 101610 82
2008-02-27 08:13:45 51°13.209 2°46.79 15.3 348 7.6 101600 81
2008-02-27 08:13:50 51°13.198 2°46.767 15.9 347 7.6 101600 81
2008-02-27 08:13:55 51°13.189 2°46.743 16.9 345 7.6 101590 81
2008-02-27 08:14:00 51°13.178 2°46.72 16.1 347 7.6 101590 81
2008-02-27 08:14:05 51°13.167 2°46.696 16.6 348 7.6 101600 81
2008-02-27 08:14:10 51°13.156 2°46.673 15.7 348 7.6 101600 81
2008-02-27 08:14:15 51°13.145 2°46.65 15.4 349 7.6 101610 81
2008-02-27 08:14:20 51°13.135 2°46.626 14.8 348 7.6 101610 81
2008-02-27 08:14:25 51°13.125 2°46.603 14.3 348 7.6 101600 81
2008-02-27 08:14:30 51°13.114 2°46.579 14.1 349 7.6 101600 81
2008-02-27 08:14:35 51°13.104 2°46.556 12.6 348 7.6 101600 80
2008-02-27 08:14:40 51°13.093 2°46.532 13.7 344 7.6 101600 80
2008-02-27 08:14:45 51°13.082 2°46.508 14.8 345 7.6 101600 80
2008-02-27 08:14:50 51°13.072 2°46.485 14.9 348 7.6 101600 80
2008-02-27 08:14:55 51°13.061 2°46.462 15.4 346 7.6 101610 81
2008-02-27 08:15:00 51°13.051 2°46.438 14.9 347 7.6 101610 81
2008-02-27 08:15:05 51°13.04 2°46.415 13.4 344 7.6 101620 81
2008-02-27 08:15:10 51°13.03 2°46.391 13.7 349 7.6 101620 81
2008-02-27 08:15:15 51°13.019 2°46.368 14.5 348 7.6 101610 81
2008-02-27 08:15:20 51°13.008 2°46.345 16.1 347 7.6 101610 81
2008-02-27 08:15:25 51°12.998 2°46.322 15.2 349 7.6 101610 81
2008-02-27 08:15:30 51°12.987 2°46.299 14 347 7.6 101610 81
2008-02-27 08:15:35 51°12.977 2°46.275 15.6 346 7.6 101620 81
2008-02-27 08:15:40 51°12.967 2°46.251 14.3 346 7.6 101620 81
2008-02-27 08:15:45 51°12.956 2°46.227 17.4 347 7.6 101600 81
2008-02-27 08:15:50 51°12.946 2°46.203 16.2 346 7.6 101600 81
2008-02-27 08:15:55 51°12.935 2°46.18 16.7 348 7.6 101610 81
2008-02-27 08:16:00 51°12.925 2°46.156 15.1 347 7.6 101610 81
2008-02-27 08:16:05 51°12.914 2°46.134 15.9 348 7.6 101610 81
2008-02-27 08:16:10 51°12.904 2°46.11 14.2 348 7.6 101610 81
2008-02-27 08:16:15 51°12.893 2°46.087 13.4 348 7.6 101610 81
2008-02-27 08:16:20 51°12.883 2°46.063 14 345 7.6 101610 81
2008-02-27 08:16:25 51°12.873 2°46.039 16.1 349 7.6 101610 80
2008-02-27 08:16:30 51°12.862 2°46.016 15.6 346 7.6 101610 80
2008-02-27 08:16:34 51°12.854 2°45.997 15.4 347 7.6 101610 81
2008-02-27 08:16:40 51°12.841 2°45.969 15.5 345 7.6 101610 81
2008-02-27 08:16:45 51°12.831 2°45.945 14.8 346 7.6 101610 81
2008-02-27 08:16:50 51°12.821 2°45.921 14.7 347 7.6 101610 81
2008-02-27 08:16:55 51°12.81 2°45.898 14.1 344 7.6 101610 81
2008-02-27 08:17:00 51°12.801 2°45.873 14.8 347 7.6 101610 81
2008-02-27 08:17:05 51°12.792 2°45.848 15.7 346 7.6 101610 81
2008-02-27 08:17:10 51°12.783 2°45.824 15.7 344 7.6 101610 81
2008-02-27 08:17:15 51°12.775 2°45.798 16.3 346 7.6 101610 81
2008-02-27 08:17:20 51°12.766 2°45.773 14.9 346 7.6 101610 81
2008-02-27 08:17:25 51°12.758 2°45.748 14.3 344 7.6 101630 81
2008-02-27 08:17:30 51°12.749 2°45.722 14.6 343 7.6 101630 81
2008-02-27 08:17:35 51°12.741 2°45.697 14.8 342 7.6 101620 81
2008-02-27 08:17:40 51°12.732 2°45.672 15.6 345 7.6 101620 81
2008-02-27 08:17:45 51°12.723 2°45.647 14.8 344 7.6 101610 81
2008-02-27 08:17:50 51°12.715 2°45.621 15.2 345 7.6 101610 81
2008-02-27 08:17:55 51°12.707 2°45.596 14.8 343 7.6 101620 81
2008-02-27 08:18:00 51°12.698 2°45.571 14.2 344 7.6 101620 81
2008-02-27 08:18:05 51°12.69 2°45.545 15.9 344 7.6 101630 81
2008-02-27 08:18:10 51°12.681 2°45.521 16.8 347 7.6 101630 81
2008-02-27 08:18:15 51°12.673 2°45.495 15.4 344 7.6 101610 81
2008-02-27 08:18:20 51°12.664 2°45.47 14.9 340 7.6 101610 81
2008-02-27 08:18:25 51°12.657 2°45.444 15.8 342 7.6 101620 81
2008-02-27 08:18:30 51°12.65 2°45.418 14.5 341 7.6 101620 81
2008-02-27 08:18:35 51°12.642 2°45.393 14.4 343 7.6 101620 81
2008-02-27 08:18:40 51°12.636 2°45.367 16.4 343 7.6 101620 81
2008-02-27 08:18:45 51°12.629 2°45.341 16.1 343 7.6 101620 81
2008-02-27 08:18:50 51°12.622 2°45.314 15 343 7.6 101620 81
2008-02-27 08:18:55 51°12.614 2°45.288 16 343 7.6 101630 81
2008-02-27 08:19:00 51°12.608 2°45.262 14.2 342 7.6 101630 81
2008-02-27 08:19:05 51°12.601 2°45.236 15.8 343 7.6 101620 81
2008-02-27 08:19:10 51°12.594 2°45.209 15.3 341 7.6 101620 81
2008-02-27 08:19:15 51°12.587 2°45.183 14.8 342 7.6 101620 81
2008-02-27 08:19:20 51°12.58 2°45.156 13.4 341 7.6 101620 81
2008-02-27 08:19:25 51°12.573 2°45.13 14.7 342 7.6 101620 81
2008-02-27 08:19:30 51°12.567 2°45.104 15.9 341 7.6 101620 81
2008-02-27 08:19:35 51°12.56 2°45.077 14.4 342 7.6 101630 81
2008-02-27 08:19:40 51°12.554 2°45.05 15.3 343 7.6 101630 81
2008-02-27 08:19:45 51°12.546 2°45.024 16.7 344 7.7 101640 81
2008-02-27 08:19:50 51°12.54 2°44.998 16.2 345 7.7 101640 81
2008-02-27 08:19:55 51°12.532 2°44.972 14.8 343 7.7 101620 81
2008-02-27 08:20:00 51°12.525 2°44.945 14.9 342 7.7 101620 81
2008-02-27 08:20:05 51°12.518 2°44.919 15.1 344 7.7 101630 81
2008-02-27 08:20:10 51°12.511 2°44.893 16 345 7.7 101630 81
2008-02-27 08:20:15 51°12.504 2°44.867 13.8 341 7.6 101630 81
2008-02-27 08:20:20 51°12.497 2°44.84 14.5 342 7.6 101630 81
2008-02-27 08:20:25 51°12.489 2°44.814 16.5 342 7.6 101620 81
2008-02-27 08:20:30 51°12.483 2°44.788 15.6 339 7.6 101620 81
2008-02-27 08:20:35 51°12.475 2°44.762 16.5 343 7.7 101630 81
2008-02-27 08:20:40 51°12.468 2°44.736 14 342 7.7 101630 81
2008-02-27 08:20:45 51°12.46 2°44.71 13.9 342 7.7 101620 81
2008-02-27 08:20:50 51°12.454 2°44.684 16.8 345 7.7 101620 81
2008-02-27 08:20:55 51°12.447 2°44.657 15.4 344 7.7 101630 81
2008-02-27 08:21:00 51°12.439 2°44.631 14.9 341 7.7 101630 81
2008-02-27 08:21:05 51°12.433 2°44.605 16.3 344 7.7 101640 81
2008-02-27 08:21:10 51°12.426 2°44.579 14.9 343 7.7 101640 81
2008-02-27 08:21:15 51°12.419 2°44.552 13.1 342 7.7 101630 81
2008-02-27 08:21:20 51°12.412 2°44.525 17.3 343 7.7 101630 81
2008-02-27 08:21:25 51°12.405 2°44.499 13.8 343 7.7 101630 81
2008-02-27 08:21:30 51°12.398 2°44.472 14.2 343 7.7 101630 81
2008-02-27 08:21:35 51°12.391 2°44.445 14.7 342 7.7 101630 81
2008-02-27 08:21:40 51°12.384 2°44.419 15.4 342 7.7 101630 81
2008-02-27 08:21:45 51°12.377 2°44.392 16.7 343 7.7 101640 81
2008-02-27 08:21:50 51°12.371 2°44.366 15.6 342 7.7 101640 81
2008-02-27 08:21:55 51°12.363 2°44.34 16.6 346 7.7 101630 81
2008-02-27 08:22:00 51°12.357 2°44.313 16 343 7.7 101630 81
2008-02-27 08:22:05 51°12.349 2°44.288 16.3 342 7.7 101630 81
2008-02-27 08:22:10 51°12.342 2°44.262 17.2 343 7.7 101630 81
2008-02-27 08:22:15 51°12.335 2°44.236 15.2 343 7.7 101630 81
2008-02-27 08:22:20 51°12.328 2°44.21 16.7 343 7.7 101630 81
2008-02-27 08:22:25 51°12.321 2°44.183 16.7 342 7.6 101620 81
2008-02-27 08:22:30 51°12.313 2°44.157 13.1 341 7.6 101620 81
2008-02-27 08:22:35 51°12.306 2°44.131 14.9 344 7.6 101630 81
2008-02-27 08:22:40 51°12.299 2°44.105 15.2 343 7.6 101630 81
2008-02-27 08:22:45 51°12.292 2°44.079 15.6 345 7.6 101630 80
2008-02-27 08:22:50 51°12.285 2°44.052 14.6 341 7.6 101630 80
2008-02-27 08:22:55 51°12.277 2°44.027 15.6 340 7.7 101630 80
2008-02-27 08:23:00 51°12.271 2°44 15.3 345 7.7 101630 80
2008-02-27 08:23:05 51°12.263 2°43.974 15.3 344 7.7 101630 81
2008-02-27 08:23:10 51°12.255 2°43.949 13.5 342 7.7 101630 81
2008-02-27 08:23:15 51°12.248 2°43.923 13.3 344 7.6 101630 80
2008-02-27 08:23:20 51°12.24 2°43.898 16 343 7.6 101630 80
2008-02-27 08:23:25 51°12.232 2°43.872 14.9 340 7.7 101640 80
2008-02-27 08:23:30 51°12.225 2°43.846 15.9 344 7.7 101640 80
2008-02-27 08:23:35 51°12.217 2°43.821 13.6 341 7.7 101630 81
2008-02-27 08:23:40 51°12.209 2°43.796 13.3 343 7.7 101630 81
2008-02-27 08:23:45 51°12.202 2°43.77 15.3 342 7.7 101630 81
2008-02-27 08:23:50 51°12.193 2°43.744 15.2 343 7.7 101630 81
2008-02-27 08:23:55 51°12.186 2°43.719 16.3 343 7.7 101630 81
2008-02-27 08:24:00 51°12.178 2°43.693 16.4 341 7.7 101630 81
2008-02-27 08:24:05 51°12.171 2°43.667 15.2 342 7.7 101640 81
2008-02-27 08:24:10 51°12.163 2°43.641 14.5 342 7.7 101640 81
2008-02-27 08:24:15 51°12.155 2°43.616 15 340 7.7 101640 81
2008-02-27 08:24:20 51°12.147 2°43.59 14 343 7.7 101640 81
2008-02-27 08:24:25 51°12.14 2°43.564 15.7 342 7.7 101630 81
2008-02-27 08:24:30 51°12.132 2°43.539 14.1 343 7.7 101630 81
2008-02-27 08:24:35 51°12.124 2°43.513 16.9 347 7.6 101640 81
2008-02-27 08:24:40 51°12.116 2°43.487 14.3 342 7.6 101640 81
2008-02-27 08:24:45 51°12.108 2°43.461 14.2 343 7.7 101640 81
2008-02-27 08:24:50 51°12.101 2°43.436 16 343 7.7 101640 81
2008-02-27 08:24:55 51°12.092 2°43.41 13.5 344 7.7 101630 81
2008-02-27 08:25:00 51°12.085 2°43.384 15.6 345 7.7 101630 81
2008-02-27 08:25:05 51°12.077 2°43.358 16.7 343 7.7 101640 81
2008-02-27 08:25:10 51°12.069 2°43.332 16.6 345 7.7 101640 81
2008-02-27 08:25:15 51°12.061 2°43.306 13.5 342 7.7 101650 81
2008-02-27 08:25:20 51°12.054 2°43.281 14.6 343 7.7 101650 81
2008-02-27 08:25:25 51°12.047 2°43.255 16.4 342 7.7 101630 81
2008-02-27 08:25:30 51°12.039 2°43.229 15.1 344 7.7 101630 81
2008-02-27 08:25:35 51°12.031 2°43.204 13.6 344 7.7 101630 81
2008-02-27 08:25:40 51°12.023 2°43.179 14.6 345 7.7 101630 81
2008-02-27 08:25:45 51°12.016 2°43.153 12.4 341 7.7 101640 81
2008-02-27 08:25:50 51°12.008 2°43.127 13.2 343 7.7 101640 81
2008-02-27 08:25:55 51°11.999 2°43.102 15.1 344 7.6 101640 81
2008-02-27 08:26:00 51°11.99 2°43.078 13.7 345 7.6 101640 81
2008-02-27 08:26:05 51°11.981 2°43.053 12.9 343 7.7 101640 81
2008-02-27 08:26:10 51°11.972 2°43.029 13.8 345 7.7 101640 81
2008-02-27 08:26:15 51°11.963 2°43.005 13.7 344 7.7 101650 81
2008-02-27 08:26:20 51°11.953 2°42.981 13.9 346 7.7 101650 81
2008-02-27 08:26:25 51°11.944 2°42.957 13.7 345 7.7 101630 81
2008-02-27 08:26:30 51°11.934 2°42.933 13.7 347 7.7 101630 81
2008-02-27 08:26:35 51°11.925 2°42.909 15.6 347 7.7 101640 81
2008-02-27 08:26:40 51°11.916 2°42.885 13.8 346 7.7 101640 81
2008-02-27 08:26:45 51°11.907 2°42.861 13.8 344 7.7 101640 81
2008-02-27 08:26:50 51°11.897 2°42.837 13.7 345 7.7 101640 81
2008-02-27 08:26:55 51°11.888 2°42.812 14 347 7.7 101630 81
2008-02-27 08:27:00 51°11.878 2°42.788 13.8 346 7.7 101630 81
2008-02-27 08:27:05 51°11.869 2°42.764 13.7 344 7.7 101640 81
2008-02-27 08:27:10 51°11.859 2°42.74 15.9 345 7.7 101640 81
2008-02-27 08:27:15 51°11.849 2°42.716 14.6 345 7.7 101640 82
2008-02-27 08:27:20 51°11.839 2°42.692 17.3 343 7.7 101640 82
2008-02-27 08:27:25 51°11.83 2°42.669 16.5 346 7.7 101640 82
2008-02-27 08:27:30 51°11.82 2°42.645 13.6 346 7.7 101640 82
2008-02-27 08:27:34 51°11.812 2°42.626 15.4 345 7.7 101630 82
2008-02-27 08:27:40 51°11.801 2°42.597 14.7 346 7.7 101630 82
2008-02-27 08:27:45 51°11.792 2°42.573 14 346 7.6 101630 81
2008-02-27 08:27:50 51°11.782 2°42.549 14.5 346 7.6 101630 81
2008-02-27 08:27:55 51°11.773 2°42.525 14.7 346 7.6 101640 81
2008-02-27 08:28:00 51°11.763 2°42.501 16.2 347 7.6 101640 81
2008-02-27 08:28:05 51°11.754 2°42.476 14 345 7.6 101630 81
2008-02-27 08:28:10 51°11.744 2°42.453 12.7 343 7.6 101630 81
2008-02-27 08:28:15 51°11.735 2°42.428 14.4 346 7.6 101630 81
2008-02-27 08:28:20 51°11.726 2°42.404 14.2 344 7.6 101630 81
2008-02-27 08:28:25 51°11.717 2°42.379 13.2 342 7.6 101630 81
2008-02-27 08:28:30 51°11.708 2°42.355 15.5 345 7.6 101630 81
2008-02-27 08:28:35 51°11.699 2°42.33 15.1 345 7.6 101640 81
2008-02-27 08:28:40 51°11.689 2°42.306 14.7 345 7.6 101640 81
2008-02-27 08:28:45 51°11.679 2°42.281 14.8 346 7.7 101640 82
2008-02-27 08:28:50 51°11.669 2°42.258 12.5 347 7.7 101640 82
2008-02-27 08:28:55 51°11.658 2°42.235 13.8 346 7.6 101640 81
2008-02-27 08:29:00 51°11.648 2°42.212 15.1 348 7.6 101640 81
2008-02-27 08:29:05 51°11.637 2°42.189 13.3 347 7.6 101630 81
2008-02-27 08:29:10 51°11.627 2°42.166 14.3 348 7.6 101630 81
2008-02-27 08:29:15 51°11.616 2°42.144 13.2 346 7.6 101630 81
2008-02-27 08:29:20 51°11.605 2°42.121 13.6 346 7.6 101630 81
2008-02-27 08:29:25 51°11.595 2°42.098 13.2 344 7.6 101630 81
2008-02-27 08:29:30 51°11.583 2°42.075 14.5 345 7.6 101630 81
2008-02-27 08:29:35 51°11.573 2°42.051 13.4 345 7.6 101630 81
2008-02-27 08:29:40 51°11.562 2°42.029 13.8 346 7.6 101630 81
2008-02-27 08:29:45 51°11.552 2°42.005 13.1 347 7.6 101640 81
2008-02-27 08:29:50 51°11.541 2°41.982 15.1 345 7.6 101640 81
2008-02-27 08:29:55 51°11.53 2°41.959 15.6 345 7.7 101650 82
2008-02-27 08:30:00 51°11.52 2°41.935 14.8 346 7.7 101650 82
2008-02-27 08:30:05 51°11.509 2°41.913 13.2 345 7.6 101640 82
2008-02-27 08:30:10 51°11.498 2°41.89 13.9 346 7.6 101640 82
2008-02-27 08:30:15 51°11.488 2°41.867 13.7 347 7.6 101640 81
2008-02-27 08:30:20 51°11.476 2°41.844 13.8 346 7.6 101640 81
2008-02-27 08:30:25 51°11.466 2°41.821 13.7 349 7.6 101640 81
2008-02-27 08:30:30 51°11.455 2°41.798 12.5 344 7.6 101640 81
2008-02-27 08:30:35 51°11.445 2°41.775 13.9 345 7.6 101640 81
2008-02-27 08:30:40 51°11.434 2°41.752 13 347 7.6 101640 81
2008-02-27 08:30:45 51°11.423 2°41.729 14.9 346 7.6 101630 81
2008-02-27 08:30:50 51°11.412 2°41.705 15.6 346 7.6 101630 81
2008-02-27 08:30:55 51°11.402 2°41.682 14.7 347 7.6 101640 82
2008-02-27 08:31:00 51°11.391 2°41.659 14.9 345 7.6 101640 82
2008-02-27 08:31:05 51°11.381 2°41.634 13.8 349 7.6 101640 82
2008-02-27 08:31:10 51°11.37 2°41.612 14.3 344 7.6 101640 82
2008-02-27 08:31:15 51°11.359 2°41.589 13.3 348 7.6 101630 81
2008-02-27 08:31:20 51°11.349 2°41.565 15 346 7.6 101630 81
2008-02-27 08:31:25 51°11.338 2°41.541 13.3 348 7.6 101630 81
2008-02-27 08:31:30 51°11.328 2°41.518 14.9 345 7.6 101630 81
2008-02-27 08:31:35 51°11.317 2°41.495 13.9 345 7.6 101640 81
2008-02-27 08:31:40 51°11.306 2°41.471 15.2 346 7.6 101640 81
2008-02-27 08:31:45 51°11.296 2°41.448 15.8 345 7.6 101630 81
2008-02-27 08:31:50 51°11.285 2°41.424 14.3 345 7.6 101630 81
2008-02-27 08:31:55 51°11.274 2°41.401 14.8 343 7.6 101640 81
2008-02-27 08:32:00 51°11.264 2°41.377 15.6 347 7.6 101640 81
2008-02-27 08:32:05 51°11.253 2°41.354 16.6 348 7.6 101640 81
2008-02-27 08:32:10 51°11.243 2°41.33 15.1 347 7.6 101640 81
2008-02-27 08:32:15 51°11.231 2°41.307 16.1 347 7.6 101640 81
2008-02-27 08:32:20 51°11.221 2°41.284 14.5 346 7.6 101640 81
2008-02-27 08:32:25 51°11.21 2°41.261 12.2 343 7.6 101640 81
2008-02-27 08:32:30 51°11.199 2°41.237 13.2 346 7.6 101640 81
2008-02-27 08:32:35 51°11.188 2°41.215 13.7 347 7.6 101630 81
2008-02-27 08:32:40 51°11.178 2°41.191 13.7 346 7.6 101630 81
2008-02-27 08:32:45 51°11.167 2°41.168 13.8 345 7.6 101640 81
2008-02-27 08:32:50 51°11.156 2°41.145 14.8 282 7.6 101640 81
2008-02-27 08:32:55 51°11.146 2°41.121 13.6 345 7.6 101650 82
2008-02-27 08:33:00 51°11.136 2°41.097 14.1 346 7.6 101650 82
2008-02-27 08:33:05 51°11.124 2°41.074 15.9 346 7.6 101640 82
2008-02-27 08:33:10 51°11.114 2°41.05 14.4 347 7.6 101640 82
2008-02-27 08:33:15 51°11.104 2°41.026 15.5 347 7.6 101630 82
2008-02-27 08:33:20 51°11.093 2°41.002 14.9 348 7.6 101630 82
2008-02-27 08:33:25 51°11.082 2°40.979 13.6 348 7.6 101630 81
2008-02-27 08:33:30 51°11.072 2°40.955 15.5 349 7.6 101630 81
2008-02-27 08:33:35 51°11.061 2°40.931 14.7 347 7.6 101640 81
2008-02-27 08:33:40 51°11.05 2°40.908 14.6 347 7.6 101640 81
2008-02-27 08:33:45 51°11.04 2°40.884 13.8 345 7.6 101640 81
2008-02-27 08:33:50 51°11.028 2°40.86 14.1 283 7.6 101640 81
2008-02-27 08:33:55 51°11.018 2°40.836 15.3 346 7.6 101640 82
2008-02-27 08:34:00 51°11.007 2°40.813 14.2 349 7.6 101640 82
2008-02-27 08:34:05 51°10.997 2°40.789 14.7 345 7.6 101640 82
2008-02-27 08:34:10 51°10.986 2°40.766 15.2 347 7.6 101640 82
2008-02-27 08:34:15 51°10.975 2°40.742 14.3 349 7.6 101640 82
2008-02-27 08:34:20 51°10.965 2°40.718 14.4 347 7.6 101640 82
2008-02-27 08:34:25 51°10.954 2°40.695 12.8 344 7.6 101640 82
2008-02-27 08:34:30 51°10.943 2°40.672 14.8 347 7.6 101640 82
2008-02-27 08:34:35 51°10.932 2°40.648 12.3 343 7.6 101640 81
2008-02-27 08:34:40 51°10.921 2°40.625 14.9 347 7.6 101640 81
2008-02-27 08:34:45 51°10.91 2°40.602 13.5 345 7.6 101630 81
2008-02-27 08:34:50 51°10.899 2°40.578 14.3 283 7.6 101630 81
2008-02-27 08:34:55 51°10.889 2°40.555 15.2 346 7.6 101650 82
2008-02-27 08:35:00 51°10.878 2°40.531 14.5 346 7.6 101650 82
2008-02-27 08:35:05 51°10.867 2°40.507 13.3 346 7.6 101640 82
2008-02-27 08:35:10 51°10.857 2°40.483 15.5 347 7.6 101640 82
2008-02-27 08:35:15 51°10.846 2°40.46 14.6 348 7.6 101640 81
2008-02-27 08:35:20 51°10.836 2°40.434 12.1 342 7.6 101640 81
2008-02-27 08:35:25 51°10.824 2°40.412 14.9 347 7.6 101640 81
2008-02-27 08:35:30 51°10.814 2°40.387 14.3 347 7.6 101640 81
2008-02-27 08:35:35 51°10.803 2°40.364 14 347 7.6 101650 81
2008-02-27 08:35:40 51°10.793 2°40.339 15 347 7.6 101650 81
2008-02-27 08:35:45 51°10.781 2°40.316 15.3 345 7.6 101630 81
2008-02-27 08:35:50 51°10.771 2°40.291 15 279 7.6 101630 81
2008-02-27 08:35:55 51°10.76 2°40.268 14.7 347 7.6 101650 81
2008-02-27 08:36:00 51°10.749 2°40.244 15.3 347 7.6 101650 81
2008-02-27 08:36:05 51°10.739 2°40.22 15.2 348 7.6 101630 81
2008-02-27 08:36:10 51°10.728 2°40.197 13.4 346 7.6 101630 81
2008-02-27 08:36:15 51°10.717 2°40.173 14.3 344 7.6 101630 81
2008-02-27 08:36:20 51°10.706 2°40.149 13.3 345 7.6 101630 81
2008-02-27 08:36:25 51°10.696 2°40.125 14.4 349 7.6 101640 81
2008-02-27 08:36:30 51°10.685 2°40.102 15.3 347 7.6 101640 81
2008-02-27 08:36:35 51°10.674 2°40.078 14.8 348 7.6 101630 81
2008-02-27 08:36:40 51°10.663 2°40.054 14.6 347 7.6 101630 81
2008-02-27 08:36:45 51°10.653 2°40.03 13.6 348 7.6 101640 82
2008-02-27 08:36:50 51°10.642 2°40.006 14.2 281 7.6 101640 82
2008-02-27 08:36:55 51°10.632 2°39.982 14.6 346 7.7 101640 82
2008-02-27 08:37:00 51°10.621 2°39.959 14.5 347 7.7 101640 82
2008-02-27 08:37:05 51°10.61 2°39.936 14.2 345 7.6 101640 81
2008-02-27 08:37:10 51°10.598 2°39.913 14.9 346 7.6 101640 81
2008-02-27 08:37:15 51°10.588 2°39.889 14.4 346 7.6 101640 82
2008-02-27 08:37:20 51°10.577 2°39.866 15.6 350 7.6 101640 82
2008-02-27 08:37:25 51°10.567 2°39.842 12.9 347 7.6 101640 82
2008-02-27 08:37:30 51°10.556 2°39.818 12.9 346 7.6 101640 82
2008-02-27 08:37:35 51°10.545 2°39.794 14 344 7.7 101630 82
2008-02-27 08:37:40 51°10.534 2°39.771 14.2 348 7.7 101630 82
2008-02-27 08:37:45 51°10.524 2°39.747 14 345 7.6 101640 82
2008-02-27 08:37:50 51°10.512 2°39.723 15.1 347 7.6 101640 82
2008-02-27 08:37:55 51°10.502 2°39.699 13 346 7.7 101640 82
2008-02-27 08:38:00 51°10.491 2°39.676 13.4 347 7.7 101640 82
2008-02-27 08:38:05 51°10.481 2°39.652 14.5 344 7.6 101650 82
2008-02-27 08:38:10 51°10.47 2°39.628 14.9 345 7.6 101650 82
2008-02-27 08:38:15 51°10.46 2°39.603 13.1 343 7.6 101640 82
2008-02-27 08:38:20 51°10.45 2°39.578 15.9 346 7.6 101640 82
2008-02-27 08:38:25 51°10.441 2°39.553 14.7 345 7.7 101640 82
2008-02-27 08:38:30 51°10.431 2°39.528 15.9 348 7.7 101640 82
2008-02-27 08:38:35 51°10.422 2°39.502 13.7 344 7.6 101640 82
2008-02-27 08:38:40 51°10.412 2°39.477 15.6 344 7.6 101640 82
2008-02-27 08:38:45 51°10.403 2°39.451 14.1 346 7.7 101640 82
2008-02-27 08:38:50 51°10.393 2°39.426 14.9 281 7.7 101640 82
2008-02-27 08:38:55 51°10.383 2°39.401 14 342 7.6 101640 82
2008-02-27 08:39:00 51°10.374 2°39.376 14.8 345 7.6 101640 82
2008-02-27 08:39:05 51°10.364 2°39.351 13.7 347 7.6 101640 82
2008-02-27 08:39:10 51°10.354 2°39.326 12.9 346 7.6 101640 82
2008-02-27 08:39:15 51°10.345 2°39.301 13.1 342 7.7 101630 82
2008-02-27 08:39:20 51°10.335 2°39.276 14.3 347 7.7 101630 82
2008-02-27 08:39:25 51°10.326 2°39.251 13.9 345 7.6 101640 82
2008-02-27 08:39:30 51°10.316 2°39.226 16.2 346 7.6 101640 82
2008-02-27 08:39:35 51°10.307 2°39.201 16.1 342 7.7 101640 82
2008-02-27 08:39:40 51°10.297 2°39.175 14.5 346 7.7 101640 82
2008-02-27 08:39:45 51°10.288 2°39.15 15.4 345 7.7 101650 82
2008-02-27 08:39:50 51°10.278 2°39.125 15.7 343 7.7 101650 82
2008-02-27 08:39:55 51°10.268 2°39.1 15.8 346 7.7 101640 82
2008-02-27 08:40:00 51°10.259 2°39.074 15.1 345 7.7 101640 82
2008-02-27 08:40:05 51°10.249 2°39.049 14.5 346 7.7 101640 82
2008-02-27 08:40:10 51°10.24 2°39.023 14.1 348 7.7 101640 82
2008-02-27 08:40:15 51°10.23 2°38.998 14.5 343 7.6 101640 81
2008-02-27 08:40:20 51°10.221 2°38.973 15.8 346 7.6 101640 81
2008-02-27 08:40:25 51°10.211 2°38.947 14.5 348 7.6 101650 81
2008-02-27 08:40:30 51°10.203 2°38.921 16.4 344 7.6 101650 81
2008-02-27 08:40:35 51°10.193 2°38.896 15.6 346 7.6 101640 81
2008-02-27 08:40:40 51°10.185 2°38.869 15.2 343 7.6 101640 81
2008-02-27 08:40:45 51°10.176 2°38.844 14.2 342 7.6 101640 81
2008-02-27 08:40:50 51°10.167 2°38.817 15.6 345 7.6 101640 81
2008-02-27 08:40:55 51°10.158 2°38.791 15.8 343 7.6 101640 81
2008-02-27 08:41:00 51°10.15 2°38.765 14.8 343 7.6 101640 81
2008-02-27 08:41:05 51°10.141 2°38.74 14.9 344 7.6 101630 81
2008-02-27 08:41:10 51°10.133 2°38.716 13.9 346 7.6 101630 81
2008-02-27 08:41:15 51°10.126 2°38.695 13.5 342 7.6 101650 81
2008-02-27 08:41:20 51°10.119 2°38.675 13.3 345 7.6 101650 81
2008-02-27 08:41:25 51°10.113 2°38.656 12.7 345 7.6 101640 81
2008-02-27 08:41:30 51°10.108 2°38.639 12.9 346 7.6 101640 81
2008-02-27 08:41:35 51°10.103 2°38.623 12.5 347 7.7 101650 81
2008-02-27 08:41:40 51°10.098 2°38.608 13.4 349 7.7 101650 81
2008-02-27 08:41:45 51°10.093 2°38.594 11.1 347 7.7 101660 81
2008-02-27 08:41:50 51°10.089 2°38.58 10.5 350 7.7 101660 81
2008-02-27 08:41:55 51°10.085 2°38.568 10.7 345 7.6 101650 81
2008-02-27 08:42:00 51°10.081 2°38.555 11.3 348 7.6 101650 81
2008-02-27 08:42:05 51°10.077 2°38.544 11.6 348 7.6 101650 80
2008-02-27 08:42:10 51°10.074 2°38.532 10.6 348 7.6 101650 80
2008-02-27 08:42:15 51°10.07 2°38.522 10.2 352 7.6 101660 81
2008-02-27 08:42:20 51°10.067 2°38.512 10.6 349 7.6 101660 81
2008-02-27 08:42:25 51°10.064 2°38.502 10.5 352 7.6 101660 81
2008-02-27 08:42:30 51°10.061 2°38.494 9.5 351 7.6 101660 81
2008-02-27 08:42:35 51°10.058 2°38.485 9.1 350 7.6 101660 81
2008-02-27 08:42:40 51°10.055 2°38.477 10.1 347 7.6 101660 81
2008-02-27 08:42:45 51°10.052 2°38.469 8.8 350 7.7 101650 81
2008-02-27 08:42:50 51°10.049 2°38.462 9.7 354 7.7 101650 81
2008-02-27 08:42:55 51°10.047 2°38.455 9.6 352 7.6 101660 81
2008-02-27 08:43:00 51°10.044 2°38.448 10.5 351 7.6 101660 81
2008-02-27 08:43:05 51°10.041 2°38.441 9.3 351 7.6 101660 81
2008-02-27 08:43:10 51°10.039 2°38.434 8.3 349 7.6 101660 81
2008-02-27 08:43:15 51°10.036 2°38.428 9 351 7.7 101660 82
2008-02-27 08:43:20 51°10.034 2°38.422 10.4 352 7.7 101660 82
2008-02-27 08:43:25 51°10.031 2°38.416 9.9 347 7.7 101660 82
2008-02-27 08:43:30 51°10.029 2°38.41 9.2 351 7.7 101660 82
2008-02-27 08:43:35 51°10.026 2°38.405 9.6 352 7.7 101660 82
2008-02-27 08:43:40 51°10.024 2°38.4 10.2 355 7.7 101660 82
2008-02-27 08:43:45 51°10.022 2°38.394 8.6 353 7.7 101660 82
2008-02-27 08:43:50 51°10.02 2°38.39 8.4 352 7.7 101660 82
2008-02-27 08:43:55 51°10.017 2°38.385 9 356 7.7 101660 82
2008-02-27 08:44:00 51°10.015 2°38.38 9.8 353 7.7 101660 82
2008-02-27 08:44:05 51°10.013 2°38.375 8.7 354 7.7 101660 82
2008-02-27 08:44:10 51°10.011 2°38.37 8.3 350 7.7 101660 82
2008-02-27 08:44:15 51°10.009 2°38.366 9.4 349 7.7 101660 83
2008-02-27 08:44:20 51°10.007 2°38.362 8.6 354 7.7 101660 83
2008-02-27 08:44:25 51°10.005 2°38.358 8.6 355 7.7 101660 83
2008-02-27 08:44:30 51°10.003 2°38.354 9.5 357 7.7 101660 83
2008-02-27 08:44:35 51°10.001 2°38.351 8.8 358 7.7 101660 83
2008-02-27 08:44:40 51°9.999 2°38.347 10 354 7.7 101660 83
2008-02-27 08:44:45 51°9.997 2°38.344 9.9 357 7.7 101660 83
2008-02-27 08:44:50 51°9.995 2°38.341 9.7 355 7.7 101660 83
2008-02-27 08:44:55 51°9.993 2°38.338 9.4 357 7.6 101660 83
2008-02-27 08:45:00 51°9.991 2°38.334 7.9 358 7.6 101660 83
2008-02-27 08:45:05 51°9.989 2°38.331 8.5 1 7.7 101660 83
2008-02-27 08:45:10 51°9.987 2°38.328 8.1 357 7.7 101660 83
2008-02-27 08:45:15 51°9.985 2°38.325 9 358 7.6 101660 83
2008-02-27 08:45:20 51°9.984 2°38.322 9.8 356 7.6 101660 83
2008-02-27 08:45:25 51°9.982 2°38.319 9.2 357 7.6 101660 83
2008-02-27 08:45:30 51°9.98 2°38.316 10.4 358 7.6 101660 83
2008-02-27 08:45:35 51°9.978 2°38.313 11.3 358 7.6 101660 83
2008-02-27 08:45:40 51°9.976 2°38.311 10.2 358 7.6 101660 83
2008-02-27 08:45:45 51°9.975 2°38.308 9.4 360 7.6 101660 83
2008-02-27 08:45:50 51°9.973 2°38.305 10.1 2 7.6 101660 83
2008-02-27 08:45:55 51°9.971 2°38.302 8.9 360 7.6 101660 82
2008-02-27 08:46:00 51°9.969 2°38.3 8.3 355 7.6 101660 82
2008-02-27 08:46:05 51°9.968 2°38.297 10 360 7.6 101660 82
2008-02-27 08:46:10 51°9.966 2°38.294 9.1 360 7.6 101660 82
2008-02-27 08:46:15 51°9.964 2°38.292 8.9 359 7.6 101660 81
2008-02-27 08:46:20 51°9.963 2°38.289 9.2 356 7.6 101660 81
2008-02-27 08:46:25 51°9.961 2°38.286 8 356 7.6 101660 82
2008-02-27 08:46:30 51°9.959 2°38.284 8.1 357 7.6 101660 82
2008-02-27 08:46:35 51°9.958 2°38.281 9.9 353 7.6 101660 82
2008-02-27 08:46:40 51°9.956 2°38.279 8.8 355 7.6 101660 82
2008-02-27 08:46:45 51°9.955 2°38.276 8.7 355 7.6 101660 82
2008-02-27 08:46:50 51°9.953 2°38.274 9.3 357 7.6 101660 82
2008-02-27 08:46:55 51°9.951 2°38.271 8.7 357 7.6 101660 82
2008-02-27 08:47:00 51°9.949 2°38.269 9.3 358 7.6 101660 82
2008-02-27 08:47:05 51°9.948 2°38.267 8.9 357 7.6 101660 82
2008-02-27 08:47:10 51°9.946 2°38.264 10 356 7.6 101660 82
2008-02-27 08:47:15 51°9.945 2°38.262 9.2 2 7.6 101660 82
2008-02-27 08:47:20 51°9.943 2°38.26 9.5 2 7.6 101660 82
2008-02-27 08:47:25 51°9.942 2°38.258 8.6 4 7.6 101650 82
2008-02-27 08:47:30 51°9.94 2°38.256 9.3 2 7.6 101650 82
2008-02-27 08:47:35 51°9.938 2°38.254 8.4 2 7.6 101660 82
2008-02-27 08:47:40 51°9.937 2°38.252 9.8 1 7.6 101660 82
2008-02-27 08:47:45 51°9.935 2°38.25 9.6 358 7.6 101660 82
2008-02-27 08:47:50 51°9.934 2°38.247 8.8 358 7.6 101660 82
2008-02-27 08:47:55 51°9.932 2°38.245 8.8 -999 7.6 101660 82
2008-02-27 08:48:00 51°9.93 2°38.243 8.9 1 7.6 101660 82
2008-02-27 08:48:05 51°9.929 2°38.241 8.7 1 7.6 101670 82
2008-02-27 08:48:10 51°9.927 2°38.239 8.3 -999 7.6 101670 82
2008-02-27 08:48:15 51°9.925 2°38.237 8.1 355 7.6 101670 82
2008-02-27 08:48:20 51°9.924 2°38.234 8.5 360 7.6 101670 82
2008-02-27 08:48:25 51°9.922 2°38.233 9 354 7.6 101670 82
2008-02-27 08:48:30 51°9.921 2°38.23 7.6 -999 7.6 101670 82
2008-02-27 08:48:35 51°9.919 2°38.228 8.8 355 7.6 101670 81
2008-02-27 08:48:40 51°9.917 2°38.226 9.6 358 7.6 101670 81
2008-02-27 08:48:45 51°9.916 2°38.224 9 356 7.6 101670 82
2008-02-27 08:48:50 51°9.914 2°38.221 8.7 355 7.6 101670 82
2008-02-27 08:48:55 51°9.913 2°38.219 8.5 357 7.6 101670 82
2008-02-27 08:49:00 51°9.911 2°38.217 9.3 1 7.6 101670 82
2008-02-27 08:49:05 51°9.91 2°38.215 9.6 359 7.6 101670 82
2008-02-27 08:49:10 51°9.908 2°38.213 8.9 357 7.6 101670 82
2008-02-27 08:49:15 51°9.906 2°38.211 7.2 -999 7.6 101660 82
2008-02-27 08:49:20 51°9.905 2°38.21 8.5 360 7.6 101660 82
2008-02-27 08:49:25 51°9.903 2°38.208 8.9 359 7.6 101670 82
2008-02-27 08:49:30 51°9.902 2°38.206 9.3 4 7.6 101670 82
2008-02-27 08:49:35 51°9.9 2°38.204 9.5 2 7.6 101660 82
2008-02-27 08:49:40 51°9.898 2°38.202 9.4 3 7.6 101660 82
2008-02-27 08:49:45 51°9.897 2°38.2 9.2 3 7.6 101670 82
2008-02-27 08:49:50 51°9.895 2°38.199 9.4 4 7.6 101670 82
2008-02-27 08:49:55 51°9.893 2°38.197 8.9 5 7.6 101670 82
2008-02-27 08:50:00 51°9.892 2°38.195 8.7 7 7.6 101670 82
2008-02-27 08:50:05 51°9.89 2°38.194 8.5 7 7.6 101660 81
2008-02-27 08:50:10 51°9.889 2°38.192 9.2 4 7.6 101660 81
2008-02-27 08:50:15 51°9.887 2°38.191 7.2 3 7.5 101670 81
2008-02-27 08:50:20 51°9.885 2°38.189 8.8 5 7.5 101670 81
2008-02-27 08:50:25 51°9.883 2°38.187 8.3 5 7.5 101670 81
2008-02-27 08:50:30 51°9.882 2°38.185 9.1 6 7.5 101670 81
2008-02-27 08:50:35 51°9.88 2°38.183 9.7 -999 7.5 101670 81
2008-02-27 08:50:40 51°9.877 2°38.18 9.2 4 7.5 101670 81
2008-02-27 08:50:45 51°9.874 2°38.177 10.8 1 7.5 101670 81
2008-02-27 08:50:50 51°9.871 2°38.173 11.5 358 7.5 101670 81
2008-02-27 08:50:55 51°9.868 2°38.169 11.2 356 7.5 101670 81
2008-02-27 08:51:00 51°9.864 2°38.165 11.7 355 7.5 101670 81
2008-02-27 08:51:05 51°9.861 2°38.16 9.8 358 7.6 101670 81
2008-02-27 08:51:10 51°9.858 2°38.155 9.6 357 7.6 101670 81
2008-02-27 08:51:15 51°9.855 2°38.15 8.9 351 7.5 101660 80
2008-02-27 08:51:20 51°9.852 2°38.144 10.3 354 7.5 101660 80
2008-02-27 08:51:25 51°9.849 2°38.139 11.7 353 7.5 101650 80
2008-02-27 08:51:30 51°9.846 2°38.134 11.1 352 7.5 101650 80
2008-02-27 08:51:35 51°9.843 2°38.128 10.4 351 7.6 101670 81
2008-02-27 08:51:40 51°9.84 2°38.123 9.4 351 7.6 101670 81
2008-02-27 08:51:45 51°9.837 2°38.117 9.2 350 7.6 101670 81
2008-02-27 08:51:50 51°9.835 2°38.111 12 352 7.6 101670 81
2008-02-27 08:51:55 51°9.832 2°38.105 11.8 352 7.5 101640 80
2008-02-27 08:52:00 51°9.829 2°38.099 11.3 350 7.5 101640 80
2008-02-27 08:52:05 51°9.827 2°38.093 11.1 349 7.6 101640 80
2008-02-27 08:52:10 51°9.824 2°38.086 11.1 347 7.6 101640 80
2008-02-27 08:52:15 51°9.821 2°38.079 12.4 347 7.6 101660 80
2008-02-27 08:52:20 51°9.819 2°38.072 10.2 346 7.6 101660 80
2008-02-27 08:52:25 51°9.816 2°38.065 10.4 346 7.5 101660 80
2008-02-27 08:52:30 51°9.814 2°38.057 11.3 343 7.5 101660 80
2008-02-27 08:52:35 51°9.812 2°38.048 12 342 7.5 101640 80
2008-02-27 08:52:40 51°9.81 2°38.039 12 343 7.5 101640 80
2008-02-27 08:52:45 51°9.808 2°38.03 12 343 7.5 101640 80
2008-02-27 08:52:50 51°9.806 2°38.021 11.2 282 7.5 101640 80
2008-02-27 08:52:55 51°9.804 2°38.013 8.8 341 7.6 101650 80
2008-02-27 08:53:00 51°9.803 2°38.005 11.5 339 7.6 101650 80
2008-02-27 08:53:05 51°9.801 2°37.998 11.5 340 7.5 101650 80
2008-02-27 08:53:10 51°9.799 2°37.991 10.9 341 7.5 101650 80
2008-02-27 08:53:15 51°9.797 2°37.983 11.5 342 7.5 101640 79
2008-02-27 08:53:20 51°9.795 2°37.976 10.1 344 7.5 101640 79
2008-02-27 08:53:25 51°9.794 2°37.97 11.6 344 7.6 101660 80
2008-02-27 08:53:30 51°9.792 2°37.963 11 344 7.6 101660 80
2008-02-27 08:53:35 51°9.791 2°37.957 10.8 343 7.6 101660 80
2008-02-27 08:53:40 51°9.789 2°37.951 10.6 343 7.6 101660 80
2008-02-27 08:53:45 51°9.787 2°37.945 11.2 343 7.6 101640 80
2008-02-27 08:53:50 51°9.785 2°37.938 9.2 343 7.6 101640 80
2008-02-27 08:53:55 51°9.784 2°37.932 10.1 344 7.6 101650 80
2008-02-27 08:54:00 51°9.782 2°37.926 8.8 339 7.6 101650 80
2008-02-27 08:54:05 51°9.78 2°37.919 9.1 344 7.6 101660 79
2008-02-27 08:54:10 51°9.779 2°37.913 9.3 343 7.6 101660 79
2008-02-27 08:54:15 51°9.777 2°37.905 9.5 342 7.6 101660 79
2008-02-27 08:54:20 51°9.775 2°37.898 8.9 337 7.6 101660 79
2008-02-27 08:54:25 51°9.774 2°37.889 9.2 337 7.6 101660 80
2008-02-27 08:54:30 51°9.773 2°37.881 10.5 338 7.6 101660 80
2008-02-27 08:54:35 51°9.771 2°37.872 9.4 335 7.6 101670 80
2008-02-27 08:54:40 51°9.77 2°37.864 8.5 340 7.6 101670 80
2008-02-27 08:54:45 51°9.769 2°37.855 9.7 340 7.7 101660 81
2008-02-27 08:54:50 51°9.768 2°37.847 11.3 280 7.7 101660 81
2008-02-27 08:54:55 51°9.767 2°37.838 10.4 340 7.7 101660 81
2008-02-27 08:55:00 51°9.766 2°37.83 10.5 336 7.7 101660 81
2008-02-27 08:55:05 51°9.764 2°37.821 9.9 337 7.7 101660 81
2008-02-27 08:55:10 51°9.763 2°37.813 12 340 7.7 101660 81
2008-02-27 08:55:15 51°9.761 2°37.805 12.6 339 7.7 101660 81
2008-02-27 08:55:20 51°9.76 2°37.796 9.7 339 7.7 101660 81
2008-02-27 08:55:25 51°9.758 2°37.788 10.5 339 7.7 101670 81
2008-02-27 08:55:30 51°9.757 2°37.78 9.9 339 7.7 101670 81
2008-02-27 08:55:35 51°9.756 2°37.772 11.1 338 7.7 101660 81
2008-02-27 08:55:40 51°9.754 2°37.764 9.2 339 7.7 101660 81
2008-02-27 08:55:45 51°9.753 2°37.756 8.9 342 7.7 101640 81
2008-02-27 08:55:50 51°9.751 2°37.748 9.7 342 7.7 101640 81
2008-02-27 08:55:55 51°9.75 2°37.74 9.6 342 7.6 101640 80
2008-02-27 08:56:00 51°9.749 2°37.732 11.1 339 7.6 101640 80
2008-02-27 08:56:05 51°9.747 2°37.724 10.2 339 7.6 101660 81
2008-02-27 08:56:10 51°9.746 2°37.716 9.8 342 7.6 101660 81
2008-02-27 08:56:15 51°9.745 2°37.708 8.7 339 7.7 101660 81
2008-02-27 08:56:20 51°9.743 2°37.7 9.7 342 7.7 101660 81
2008-02-27 08:56:25 51°9.742 2°37.693 9.9 342 7.7 101660 81
2008-02-27 08:56:30 51°9.741 2°37.685 10.1 342 7.7 101660 81
2008-02-27 08:56:35 51°9.739 2°37.677 10.6 340 7.7 101650 81
2008-02-27 08:56:40 51°9.738 2°37.669 9.2 340 7.7 101650 81
2008-02-27 08:56:45 51°9.737 2°37.661 10 340 7.7 101660 81
2008-02-27 08:56:50 51°9.736 2°37.653 8.5 279 7.7 101660 81
2008-02-27 08:56:55 51°9.734 2°37.646 10.6 336 7.7 101660 81
2008-02-27 08:57:00 51°9.733 2°37.637 9.9 339 7.7 101660 81
2008-02-27 08:57:05 51°9.732 2°37.629 10.7 341 7.7 101660 81
2008-02-27 08:57:10 51°9.73 2°37.622 10.9 341 7.7 101660 81
2008-02-27 08:57:15 51°9.729 2°37.614 10.8 340 7.7 101660 81
2008-02-27 08:57:20 51°9.728 2°37.605 10.5 343 7.7 101660 81
2008-02-27 08:57:25 51°9.726 2°37.597 11 338 7.7 101650 81
2008-02-27 08:57:30 51°9.725 2°37.589 10.6 341 7.7 101650 81
2008-02-27 08:57:35 51°9.723 2°37.581 11.9 340 7.7 101650 81
2008-02-27 08:57:40 51°9.722 2°37.573 10.7 339 7.7 101650 81
2008-02-27 08:57:45 51°9.72 2°37.565 9.7 341 7.7 101660 81
2008-02-27 08:57:50 51°9.719 2°37.557 12.4 340 7.7 101660 81
2008-02-27 08:57:55 51°9.718 2°37.55 11.2 341 7.7 101650 81
2008-02-27 08:58:00 51°9.716 2°37.542 11.7 339 7.7 101650 81
2008-02-27 08:58:05 51°9.715 2°37.534 12.4 339 7.7 101650 81
2008-02-27 08:58:10 51°9.714 2°37.526 10.7 337 7.7 101650 81
2008-02-27 08:58:15 51°9.712 2°37.518 9.9 336 7.7 101650 81
2008-02-27 08:58:20 51°9.711 2°37.51 9.5 338 7.7 101650 81
2008-02-27 08:58:25 51°9.71 2°37.503 10.6 337 7.7 101650 80
2008-02-27 08:58:30 51°9.708 2°37.495 9.7 338 7.7 101650 80
2008-02-27 08:58:35 51°9.707 2°37.487 11 338 7.7 101650 80
2008-02-27 08:58:40 51°9.706 2°37.479 9.5 338 7.7 101650 80
2008-02-27 08:58:45 51°9.704 2°37.471 9.6 340 7.7 101660 80
2008-02-27 08:58:50 51°9.703 2°37.464 9.5 282 7.7 101660 80
2008-02-27 08:58:55 51°9.701 2°37.456 10 339 7.7 101660 80
2008-02-27 08:59:00 51°9.7 2°37.448 8.9 341 7.7 101660 80
2008-02-27 08:59:05 51°9.698 2°37.44 9.7 340 7.7 101660 80
2008-02-27 08:59:10 51°9.697 2°37.432 9.8 338 7.7 101660 80
2008-02-27 08:59:15 51°9.695 2°37.424 8.6 339 7.7 101670 81
2008-02-27 08:59:20 51°9.694 2°37.416 9.2 340 7.7 101670 81
2008-02-27 08:59:25 51°9.693 2°37.408 8.3 335 7.7 101670 81
2008-02-27 08:59:30 51°9.691 2°37.4 9.5 337 7.7 101670 81
2008-02-27 08:59:35 51°9.69 2°37.392 10.7 342 7.7 101660 81
2008-02-27 08:59:40 51°9.689 2°37.384 8.8 341 7.7 101660 81
2008-02-27 08:59:45 51°9.687 2°37.377 9 337 7.7 101660 82
2008-02-27 08:59:50 51°9.686 2°37.369 9.7 343 7.7 101660 82
2008-02-27 08:59:55 51°9.685 2°37.361 9.9 336 7.7 101660 81
2008-02-27 09:00:00 51°9.683 2°37.353 10.6 339 7.7 101660 81
2008-02-27 09:00:05 51°9.681 2°37.345 9.7 339 7.8 101660 82
2008-02-27 09:00:10 51°9.68 2°37.337 9.3 340 7.8 101660 82
2008-02-27 09:00:15 51°9.679 2°37.329 10.7 337 7.8 101670 82
2008-02-27 09:00:20 51°9.677 2°37.321 10.3 339 7.8 101670 82
2008-02-27 09:00:25 51°9.676 2°37.313 10.5 336 7.7 101660 81
2008-02-27 09:00:30 51°9.675 2°37.305 10.2 337 7.7 101660 81
2008-02-27 09:00:35 51°9.673 2°37.297 10.5 339 7.7 101660 81